Location: Feigenhofen
(48.4939°N, 10.7793°E)
Time: 16:37:29
(UTC+00:00)

SL-16 R/B - Pass Details

Date: 26 May 2022
Orbit: 839 x 850 km, 71.0° (Epoch: 29 June)

Event Time Altitude Azimuth Distance (km) Brightness Sun altitude
Exits shadow 00:16:27 18° 143° (SE) 1,979 3.8 -19.0°
Maximum altitude 00:19:15 26° 103° (ESE) 1,615 3.7 -18.9°
Drops below altitude 10° 00:23:50 10° 49° (NE) 2,474 5.5 -18.7°
Sets 00:26:39 0° 37° (NE) 3,416 6.7 -18.5°
